Weather History for KROA - August, 2013

Change the Weather History Date:

Friday, August 30, 2013

  Actual Average Record
Temperature  
Mean Temperature 77 °F 73 °F  
Max Temperature 85 °F 84 °F 102 °F (1932)
Min Temperature 68 °F 63 °F 42 °F (1986)
Degree Days  
Heating Degree Days 0 0  
Month to date heating degree days 1 0  
Since 1 June heating degree days 2 11  
Since 1 July heating degree days 1 0  
Cooling Degree Days 12 9  
Month to date cooling degree days 249 314  
Year to date cooling degree days 1047 1037  
Since 1 June cooling degree days 897 921  
Growing Degree Days 26 (Base 50)    
Moisture  
Dew Point 67 °F    
Average Humidity 78    
Maximum Humidity 97    
Minimum Humidity 58    
Precipitation  
Precipitation T in 0.12 in 2.56 in (1940)
Month to date precipitation 2.24 3.44  
Year to date precipitation 42.00 28.01  
Snow  
Snow 0.00 in - - ()
Month to date snowfall 0.0  
Since 1 June snowfall 0.0  
Since 1 July snowfall 0.0  
Snow Depth 0.00 in    
Sea Level Pressure  
Sea Level Pressure 30.03 in    
Wind  
Wind Speed 3 mph (South)    
Max Wind Speed 10 mph    
Max Gust Speed 13 mph    
Visibility 8 miles    
Events      
T = Trace of Precipitation, MM = Missing Value Source: NWS Daily Summary

Daily Weather History Graph

Daily Weather History Graph

Search for Another Location

Airport or City:

Trip Planner

Search our weather history database for the weather conditions in past years. The results will help you decide how hot, cold, wet, or windy it might be!

Date:

Astronomy

Aug. 30, 2013 Rise Set
Actual Time 6:48 AM EDT 7:51 PM EDT
Civil Twilight 6:22 AM EDT 8:17 PM EDT
Nautical Twilight 5:50 AM EDT 8:49 PM EDT
Astronomical Twilight 5:17 AM EDT 9:22 PM EDT
Moon 1:30 AM EDT (8/30) 4:01 PM EDT (8/30)
Length of Visible Light 13h 55m
Length of Day
13h 02m
Waning Crescent, 29% of the Moon is Illuminated
Aug 30
Waning Crescent
Sep 5
New
Sep 12
First Quarter
Sep 19
Full
Sep 26
Last Quarter

Hourly Weather History & Observations

Time (EDT) Temp. Heat Index Dew Point Humidity Pressure Visibility Wind Dir Wind Speed Gust Speed Precip Events Conditions
12:54 AM 73.0 °F - 68.0 °F 84% 30.06 in 10.0 mi Calm Calm - N/A   Mostly Cloudy
1:30 AM 71.6 °F - 68.0 °F 88% 30.09 in 10.0 mi Calm Calm - N/A   Mostly Cloudy
1:54 AM 72.0 °F - 68.0 °F 87% 30.05 in 10.0 mi Calm Calm - N/A   Mostly Cloudy
2:12 AM 71.6 °F - 68.0 °F 88% 30.09 in 10.0 mi Calm Calm - N/A   Mostly Cloudy
2:54 AM 72.0 °F - 68.0 °F 87% 30.05 in 9.0 mi Calm Calm - 0.00 in   Overcast
3:54 AM 71.1 °F - 68.0 °F 90% 30.04 in 9.0 mi Calm Calm - N/A   Scattered Clouds
4:23 AM 69.8 °F - 68.0 °F 94% 30.09 in 8.0 mi Calm Calm - N/A   Mostly Cloudy
4:47 AM 69.8 °F - 66.2 °F 88% 30.08 in 7.0 mi Calm Calm - N/A   Scattered Clouds
4:54 AM 70.0 °F - 66.9 °F 90% 30.04 in 7.0 mi Calm Calm - N/A   Partly Cloudy
5:43 AM 69.8 °F - 66.2 °F 88% 30.08 in 7.0 mi Calm Calm - N/A   Mostly Cloudy
5:54 AM 70.0 °F - 66.9 °F 90% 30.05 in 7.0 mi Calm Calm - N/A   Overcast
6:40 AM 69.8 °F - 66.2 °F 88% 30.09 in 6.0 mi Calm Calm - N/A   Mostly Cloudy
6:54 AM 69.1 °F - 66.9 °F 93% 30.06 in 6.0 mi Calm Calm - N/A   Mostly Cloudy
7:54 AM 70.0 °F - 68.0 °F 93% 30.07 in 4.0 mi Calm Calm - N/A   Overcast
8:54 AM 71.1 °F - 68.0 °F 90% 30.08 in 4.0 mi South 3.5 mph - N/A   Overcast
9:38 AM 71.6 °F - 68.0 °F 88% 30.12 in 5.0 mi SSE 4.6 mph - N/A   Overcast
9:54 AM 72.0 °F - 68.0 °F 87% 30.08 in 5.0 mi SSW 4.6 mph - N/A   Overcast
10:54 AM 73.9 °F - 68.0 °F 82% 30.08 in 8.0 mi Variable 3.5 mph - N/A   Mostly Cloudy
11:54 AM 78.1 °F - 66.9 °F 68% 30.07 in 10.0 mi SSE 5.8 mph - N/A   Mostly Cloudy
12:54 PM 81.0 °F 83.0 °F 66.0 °F 60% 30.04 in 10.0 mi Calm Calm - N/A   Mostly Cloudy
1:54 PM 81.0 °F 83.0 °F 66.0 °F 60% 30.03 in 10.0 mi Variable 4.6 mph - N/A   Overcast
2:54 PM 82.0 °F 84.1 °F 66.0 °F 58% 30.00 in 10.0 mi WSW 5.8 mph - N/A   Scattered Clouds
3:54 PM 82.9 °F 85.0 °F 66.0 °F 56% 29.97 in 10.0 mi SSE 6.9 mph - N/A   Scattered Clouds
4:54 PM 82.9 °F 85.4 °F 66.9 °F 58% 29.96 in 10.0 mi SSE 6.9 mph - N/A   Scattered Clouds
5:54 PM 82.9 °F 85.4 °F 66.9 °F 58% 29.95 in 10.0 mi South 4.6 mph - N/A   Scattered Clouds
6:54 PM 81.0 °F 83.8 °F 68.0 °F 65% 29.94 in 10.0 mi South 9.2 mph - N/A   Partly Cloudy
7:54 PM 78.1 °F - 68.0 °F 71% 29.94 in 10.0 mi SSE 9.2 mph - N/A   Partly Cloudy
8:54 PM 77.0 °F - 68.0 °F 74% 29.95 in 10.0 mi South 4.6 mph - N/A   Clear
9:54 PM 75.0 °F - 66.9 °F 76% 29.96 in 10.0 mi South 3.5 mph - N/A   Scattered Clouds
10:54 PM 75.0 °F - 66.9 °F 76% 29.96 in 10.0 mi Calm Calm - N/A   Mostly Cloudy
11:54 PM 75.0 °F - 68.0 °F 79% 29.96 in 10.0 mi Calm Calm - N/A   Overcast